Location: Lower Kingswood
(51.2667°N, 0.2167°W)
Time: 23:48:19
(UTC+00:00)

Cosmos 990 Rocket - Visible Passes

Search period start: 23 April 2024 00:00
Search period end: 03 May 2024 00:00
Orbit: 745 x 766 km, 74.0° (Epoch: 23 April)

Date Brightness Start Highest point End Pass type
(mag) Time Alt. Az. Time Alt. Az. Time Alt. Az.
23 Apr 5.4 21:04:04 10° NW 21:08:41 33° WSW 21:13:14 10° SSW visible
24 Apr 4.5 20:23:00 10° NNW 20:28:05 57° WSW 20:33:05 10° S visible
25 Apr 6.4 21:25:23 10° WNW 21:28:24 16° W 21:31:24 10° SW visible
26 Apr 5.8 20:43:43 10° NW 20:47:59 27° W 20:52:12 10° SSW visible
27 Apr 5.0 20:02:31 10° NW 20:07:25 45° WSW 20:12:16 10° S visible
28 Apr 6.7 21:05:37 10° WNW 21:07:36 12° W 21:09:34 10° WSW visible
29 Apr 6.3 20:23:25 10° NW 20:27:14 21° W 20:31:01 10° SW visible
02 May 6.6 20:03:15 10° WNW 20:06:27 17° W 20:09:37 10° SW visible
